sat.trackr.live / text

‹ back to catalog

STARLINK-30777

NORAD 58233 · 2023-171D

PAYLOAD ACTIVE UNKNOWN

§ Identity

Operator
Country
US
Launch date
2023-11-08
Launch site
AFETR
Launch vehicle
Mass (kg)
RCS (m²)

Purposes: comms

External: N2YO · Heavens-Above · Gunter

§ Orbital elements

Epoch: 2026-09-20T16:36:59.677632Z

Period
94.27 min
Inclination
43.0012°
Eccentricity
0.0001130
Mean motion
15.27575684 rev/d
Perigee alt
482.3 km
Apogee alt
483.8 km
Semi-major
6,861.2 km
B*
2.0834e-5
RAAN
264.3062°
Arg perigee
275.4577°
Mean anomaly
84.6146°
Rev number
15,955

§ Raw data

STARLINK-307771 58233U 23171D   26263.69235738  .00000311  00000+0  20834-4 0  99922 58233  43.0012 264.3062 0001130 275.4577  84.6146 15.27575684159552

JSON: /api/v1/satellites/58233 · /tle

For live sub-satellite position, see the globe view (requires WebGL).

§ Visibility from observer

Set your observer location to see the next 7 days of passes ≥ 10°. The values pass through the URL so the page stays shareable.

No JS? Fill the form by hand. The geolocation button needs JavaScript.